Location: �terpigny
(49.8910°N, 2.9249°E)
Time: 19:19:52
(UTC+00:00)

Cosmos 2333 - Pass Details

Date: 24 October 2021
Orbit: 829 x 866 km, 70.9° (Epoch: 07 December)

Event Time Altitude Azimuth Distance (km) Brightness Sun altitude
Rises 19:31:58 0° 209° (SSW) 3,373 7.5 -28.3°
Reaches altitude 10° 19:34:23 10° 210° (SSW) 2,447 6.7 -28.6°
Enters shadow 19:38:52 59° 218° (SW) 972 4.5 -29.3°
